Weather History for KHLX - January, 2014

Change the Weather History Date:

Thursday, January 2, 2014

  Actual Average (KBLF) Record (KBLF)
Temperature  
Mean Temperature 30 °F 34 °F  
Max Temperature 39 °F 42 °F 67 °F (2000)
Min Temperature 21 °F 27 °F 0 °F (1979)
Degree Days  
Heating Degree Days 35 31  
Month to date heating degree days 62  
Since 1 July heating degree days 1827  
Cooling Degree Days 0 0  
Month to date cooling degree days 0  
Year to date cooling degree days 0  
Moisture  
Dew Point 26 °F    
Average Humidity 73    
Maximum Humidity 87    
Minimum Humidity 60    
Precipitation  
Precipitation 0.07 in 0.09 in 1.32 in (2004)
Month to date precipitation 0.18  
Year to date precipitation 0.18  
Snow  
Snow 0.00 in - - ()
Month to date snowfall  
Since 1 July snowfall  
Snow Depth -    
Sea Level Pressure  
Sea Level Pressure 29.80 in    
Wind  
Wind Speed 7 mph (SW)    
Max Wind Speed 31 mph    
Max Gust Speed 40 mph    
Visibility 9 miles    
Events Rain , Snow    
T = Trace of Precipitation, MM = Missing Value Source: NWS Daily Summary

Daily Weather History Graph

Daily Weather History Graph

Search for Another Location

Airport or City:

Trip Planner

Search our weather history database for the weather conditions in past years. The results will help you decide how hot, cold, wet, or windy it might be!

Date:

Astronomy

Jan. 02, 2014 Rise Set
Actual Time 7:36 AM EST 5:18 PM EST
Civil Twilight 7:07 AM EST 5:47 PM EST
Nautical Twilight 6:35 AM EST 6:19 PM EST
Astronomical Twilight 6:03 AM EST 6:51 PM EST
Moon 8:19 AM EST (1/2) 7:10 PM EST (1/2)
Length of Visible Light 10h 40m
Length of Day
9h 42m
New Moon, 2% of the Moon is Illuminated
Jan 2
New Moon
Jan 7
First Quarter
Jan 15
Full
Jan 24
Last Quarter
Jan 30
New

Hourly Weather History & Observations

Time (EST) Temp. Windchill Dew Point Humidity Pressure Visibility Wind Dir Wind Speed Gust Speed Precip Events Conditions
12:15 AM 33.8 °F 27.0 °F 23.0 °F 65% 30.08 in 10.0 mi South 8.1 mph - N/A   Clear
12:35 AM 33.8 °F 27.0 °F 23.0 °F 65% 30.07 in 10.0 mi South 8.1 mph - N/A   Clear
12:55 AM 33.8 °F 28.6 °F 23.0 °F 65% 30.06 in 10.0 mi South 5.8 mph - N/A   Clear
1:15 AM 33.8 °F 28.6 °F 23.0 °F 65% 30.06 in 10.0 mi South 5.8 mph - N/A   Clear
1:35 AM 33.8 °F 27.7 °F 23.0 °F 65% 30.05 in 10.0 mi South 6.9 mph - N/A   Clear
1:55 AM 33.8 °F 27.0 °F 23.0 °F 65% 30.04 in 10.0 mi South 8.1 mph - N/A   Clear
2:15 AM 33.8 °F 29.6 °F 23.0 °F 65% 30.04 in 10.0 mi SSW 4.6 mph - N/A   Clear
2:35 AM 33.8 °F 29.6 °F 23.0 °F 65% 30.03 in 10.0 mi South 4.6 mph - N/A   Clear
2:55 AM 33.8 °F 28.6 °F 23.0 °F 65% 30.03 in 10.0 mi South 5.8 mph - N/A   Clear
3:15 AM 33.8 °F 28.6 °F 23.0 °F 65% 30.02 in 10.0 mi South 5.8 mph - N/A   Clear
3:35 AM 33.8 °F 29.6 °F 23.0 °F 65% 30.01 in 10.0 mi South 4.6 mph - N/A   Clear
3:55 AM 33.8 °F 27.7 °F 21.2 °F 60% 29.99 in 10.0 mi South 6.9 mph - N/A   Clear
4:15 AM 33.8 °F 29.6 °F 21.2 °F 60% 29.98 in 10.0 mi South 4.6 mph - N/A   Clear
4:35 AM 33.8 °F 30.8 °F 21.2 °F 60% 29.96 in 10.0 mi South 3.5 mph - N/A   Clear
4:55 AM 33.8 °F - 21.2 °F 60% 29.94 in 10.0 mi Calm Calm - N/A   Clear
5:15 AM 33.8 °F 29.6 °F 21.2 °F 60% 29.95 in 10.0 mi SW 4.6 mph - N/A   Clear
5:35 AM 32.0 °F 26.4 °F 21.2 °F 64% 29.94 in 10.0 mi South 5.8 mph - N/A   Clear
5:55 AM 33.8 °F 28.6 °F 21.2 °F 60% 29.94 in 10.0 mi South 5.8 mph - N/A   Clear
6:15 AM 32.0 °F 27.5 °F 21.2 °F 64% 29.94 in 10.0 mi South 4.6 mph - N/A   Clear
6:35 AM 33.8 °F 30.8 °F 21.2 °F 60% 29.93 in 10.0 mi South 3.5 mph - N/A   Scattered Clouds
6:55 AM 32.0 °F - 23.0 °F 69% 29.93 in 10.0 mi Calm Calm - N/A   Mostly Cloudy
7:15 AM 32.0 °F - 21.2 °F 64% 29.93 in 10.0 mi Calm Calm - N/A   Mostly Cloudy
7:35 AM 30.2 °F 26.7 °F 21.2 °F 69% 29.92 in 10.0 mi West 3.5 mph - N/A   Scattered Clouds
7:55 AM 30.2 °F 25.4 °F 23.0 °F 75% 29.91 in 10.0 mi SE 4.6 mph - N/A   Mostly Cloudy
8:15 AM 30.2 °F - 23.0 °F 75% 29.89 in 10.0 mi Calm Calm - N/A   Mostly Cloudy
8:35 AM 32.0 °F 26.4 °F 21.2 °F 64% 29.88 in 10.0 mi SE 5.8 mph - N/A   Scattered Clouds
8:55 AM 32.0 °F 26.4 °F 24.8 °F 75% 29.88 in 10.0 mi SE 5.8 mph - N/A   Clear
9:15 AM 33.8 °F 29.6 °F 23.0 °F 65% 29.87 in 10.0 mi SE 4.6 mph - N/A   Mostly Cloudy
9:35 AM 33.8 °F - 24.8 °F 70% 29.86 in 10.0 mi Calm Calm - N/A   Mostly Cloudy
9:55 AM 35.6 °F - 24.8 °F 65% 29.85 in 10.0 mi Calm Calm - N/A   Scattered Clouds
10:15 AM 33.8 °F - 24.8 °F 70% 29.84 in 10.0 mi Calm Calm - N/A   Mostly Cloudy
10:35 AM 35.6 °F 32.8 °F 24.8 °F 65% 29.84 in 10.0 mi South 3.5 mph - N/A   Overcast
10:55 AM 35.6 °F 31.7 °F 24.8 °F 65% 29.83 in 10.0 mi WSW 4.6 mph - N/A   Overcast
11:15 AM 35.6 °F - 24.8 °F 65% 29.82 in 10.0 mi Calm Calm - N/A   Overcast
11:35 AM 35.6 °F 31.7 °F 26.6 °F 70% 29.79 in 10.0 mi SE 4.6 mph - N/A   Overcast
11:55 AM 35.6 °F 31.7 °F 28.4 °F 75% 29.77 in 10.0 mi SE 4.6 mph - N/A   Mostly Cloudy
12:15 PM 37.4 °F 34.9 °F 30.2 °F 75% 29.76 in 10.0 mi SW 3.5 mph - N/A   Light Drizzle
12:35 PM 37.4 °F - 30.2 °F 75% 29.74 in 7.0 mi Calm Calm - N/A   Mostly Cloudy
12:55 PM 37.4 °F - 30.2 °F 75% 29.72 in 7.0 mi Calm Calm - 0.01 in   Mostly Cloudy
1:15 PM 37.4 °F 34.9 °F 32.0 °F 81% 29.70 in 10.0 mi SSE 3.5 mph - 0.01 in   Scattered Clouds
1:35 PM 37.4 °F - 33.8 °F 87% 29.69 in 10.0 mi Calm Calm - 0.02 in   Scattered Clouds
1:55 PM 37.4 °F - 33.8 °F 87% 29.67 in 7.0 mi Calm Calm - N/A   Scattered Clouds
2:15 PM 37.4 °F - 33.8 °F 87% 29.66 in 10.0 mi Calm Calm - 0.01 in   Scattered Clouds
2:35 PM 39.2 °F 37.0 °F 33.8 °F 81% 29.64 in 7.0 mi SSW 3.5 mph - 0.01 in Rain Light Rain
2:55 PM 39.2 °F - 35.6 °F 87% 29.63 in 10.0 mi Calm Calm - 0.01 in Rain Light Rain
3:15 PM 39.2 °F - 35.6 °F 87% 29.64 in 7.0 mi Calm Calm - 0.01 in Rain Light Rain
3:35 PM 37.4 °F 34.9 °F 33.8 °F 87% 29.64 in 5.0 mi West 3.5 mph - 0.01 in   Overcast
3:55 PM 37.4 °F 32.1 °F 33.8 °F 87% 29.64 in 4.0 mi WNW 6.9 mph - 0.01 in Snow Light Snow
4:15 PM 37.4 °F 30.8 °F 33.8 °F 87% 29.63 in 10.0 mi WNW 9.2 mph - 0.02 in   Overcast
4:35 PM 39.2 °F 32.0 °F 33.8 °F 81% 29.65 in 10.0 mi WNW 11.5 mph 16.1 mph 0.02 in   Overcast
4:55 PM 39.2 °F 31.2 °F 33.8 °F 81% 29.65 in 10.0 mi West 13.8 mph 19.6 mph N/A   Overcast
5:15 PM 39.2 °F 33.0 °F 33.8 °F 81% 29.65 in 10.0 mi West 9.2 mph 16.1 mph N/A   Overcast
5:35 PM 37.4 °F 31.4 °F 33.8 °F 87% 29.65 in 10.0 mi West 8.1 mph 16.1 mph N/A   Overcast
5:55 PM 37.4 °F 29.8 °F 32.0 °F 81% 29.64 in 10.0 mi West 11.5 mph 17.3 mph N/A   Mostly Cloudy
6:15 PM 37.4 °F 28.5 °F 32.0 °F 81% 29.64 in 10.0 mi West 15.0 mph 19.6 mph N/A   Overcast
6:35 PM 37.4 °F 28.9 °F 32.0 °F 81% 29.63 in 10.0 mi WNW 13.8 mph 25.3 mph N/A   Overcast
6:55 PM 35.6 °F 25.9 °F 30.2 °F 81% 29.63 in 10.0 mi WNW 16.1 mph 25.3 mph N/A   Mostly Cloudy
7:15 PM 35.6 °F 26.2 °F 30.2 °F 81% 29.64 in 10.0 mi WNW 15.0 mph 24.2 mph N/A   Mostly Cloudy
7:35 PM 35.6 °F 25.9 °F 28.4 °F 75% 29.64 in 10.0 mi WNW 16.1 mph 25.3 mph N/A   Overcast
7:55 PM 33.8 °F 23.2 °F 28.4 °F 81% 29.64 in 10.0 mi WNW 17.3 mph 25.3 mph N/A   Overcast
8:15 PM 33.8 °F 23.2 °F 28.4 °F 81% 29.65 in 10.0 mi WNW 17.3 mph 24.2 mph N/A   Overcast
8:35 PM 32.0 °F 19.8 °F 26.6 °F 80% 29.65 in 7.0 mi WNW 20.7 mph 33.4 mph N/A Snow Light Snow
8:55 PM 32.0 °F 19.2 °F 24.8 °F 75% 29.65 in 10.0 mi WNW 23.0 mph 29.9 mph N/A   Mostly Cloudy
9:15 PM 32.0 °F 20.5 °F 23.0 °F 69% 29.66 in 10.0 mi WNW 18.4 mph 32.2 mph N/A   Overcast
9:35 PM 30.2 °F 16.5 °F 23.0 °F 75% 29.66 in 10.0 mi WNW 24.2 mph 31.1 mph N/A Snow Light Snow
9:55 PM 30.2 °F 14.9 °F 24.8 °F 80% 29.66 in 2.0 mi WNW 31.1 mph 38.0 mph N/A Snow Light Snow
10:15 PM 28.4 °F 14.7 °F 23.0 °F 80% 29.68 in 2.5 mi WNW 21.9 mph 31.1 mph N/A Snow Light Snow
10:35 PM 28.4 °F 13.5 °F 21.2 °F 74% 29.69 in 5.0 mi WNW 26.5 mph 34.5 mph N/A Snow Light Snow
10:55 PM 26.6 °F 11.7 °F 19.4 °F 74% 29.70 in 2.5 mi WNW 24.2 mph 35.7 mph N/A Snow Light Snow
11:15 PM 24.8 °F 9.3 °F 17.6 °F 74% 29.71 in 4.0 mi WNW 24.2 mph 40.3 mph N/A Snow Light Snow
11:35 PM 21.2 °F 3.3 °F 15.8 °F 80% 29.73 in 3.0 mi WNW 28.8 mph 39.1 mph N/A Snow Light Snow
11:55 PM 21.2 °F 5.2 °F 14.0 °F 74% 29.75 in 1.8 mi NW 21.9 mph 35.7 mph N/A Snow Light Snow